This demonstration page uses our WeatherBlox Daily Observations layout. Learn more.

Left ArrowRight Arrow

Hourly Observations for May 30, 2022

Temp ( °F °C ) Dew Point ( °F °C ) Humidity (%) Winds ( mph kmh ) Pressure ( in mb ) Visibility ( mi km ) Precip ( " mm )
12:52 am 00:52 Clear 72 22.2 62 16.7 71 71 SSE 23 37 29.69 1006 10 16 0.00 0.00
1:52 am 01:52 Clear 71 21.7 62 16.7 73 73 SSE 23 37 29.69 1005 10 16 0.00 0.00
2:52 am 02:52 Clear 70 21.1 61 16.1 73 73 SSE 20 31 29.68 1005 10 16 0.00 0.00
3:52 am 03:52 Clear 69 20.6 61 16.1 76 76 SSE 18 30 29.68 1005 10 16 0.00 0.00
4:52 am 04:52 Clear 69 20.6 61 16.1 76 76 SSE 16 26 29.70 1006 10 16 0.00 0.00
5:52 am 05:52 Clear 68 20 61 16.1 78 78 SSE 15 24 29.70 1006 10 16 0.00 0.00
7:52 am 07:52 Sunny 70 21.1 62 16.7 76 76 SSE 16 26 29.72 1006 10 16 0.00 0.00
8:52 am 08:52 Sunny 72 22.2 63 17.2 73 73 SSE 18 30 29.72 1006 10 16 0.00 0.00
9:52 am 09:52 Sunny 76 24.4 63 17.2 64 64 S 21 33 29.71 1006 10 16 0.00 0.00
10:52 am 10:52 Sunny 78 25.6 64 17.8 62 62 S 18 30 29.71 1006 10 16 0.00 0.00
11:52 am 11:52 Sunny 81 27.2 64 17.8 57 57 S 22 35 29.71 1006 10 16 0.00 0.00
12:52 pm 12:52 Sunny 82 27.8 62 16.7 51 51 S 25 41 29.71 1006 10 16 0.00 0.00
1:52 pm 13:52 Sunny 84 28.9 62 16.7 48 48 S 22 35 29.71 1006 10 16 0.00 0.00
2:52 pm 14:52 Sunny 85 29.4 63 17.2 48 48 S 22 35 29.70 1006 10 16 0.00 0.00
3:52 pm 15:52 Sunny 84 28.9 64 17.8 51 51 S 20 31 29.70 1006 10 16 0.00 0.00
4:52 pm 16:52 Mostly Cloudy 85 29.4 64 17.8 50 50 S 16 26 29.71 1006 10 16 0.00 0.00
5:52 pm 17:52 Mostly Cloudy 82 27.8 65 18.3 56 56 S 23 37 29.72 1006 10 16 0.00 0.00
6:52 pm 18:52 Mostly Cloudy 80 26.7 64 17.8 58 58 S 14 22 29.72 1007 10 16 0.00 0.00
7:52 pm 19:52 Cloudy 79 26.1 63 17.2 58 58 S 16 26 29.73 1007 10 16 0.00 0.00
8:52 pm 20:52 Cloudy 78 25.6 63 17.2 60 60 S 14 22 29.75 1008 10 16 0.00 0.00
9:52 pm 21:52 Cloudy 77 25 64 17.8 64 64 S 10 17 29.81 1009 10 16 0.00 0.00
10:52 pm 22:52 Cloudy 76 24.4 64 17.8 67 67 SSE 15 24 29.81 1010 10 16 0.00 0.00
11:52 pm 23:52 Cloudy 76 24.4 64 17.8 67 67 SSE 18 30 29.80 1009 10 16 0.00 0.00

Powered by AerisWeather